Year,Month,Day,Hour,Minute,Value (Times are PST for temperature in C)
2016,04,06,00,00,9.70
2016,04,06,00,01,9.70
2016,04,06,00,02,9.70
2016,04,06,00,03,9.70
2016,04,06,00,04,9.70
2016,04,06,00,05,9.70
2016,04,06,00,06,9.70
2016,04,06,00,07,9.70
2016,04,06,00,08,9.70
2016,04,06,00,09,9.70
2016,04,06,00,10,9.70
2016,04,06,00,11,9.60
2016,04,06,00,12,9.60
2016,04,06,00,13,9.60
2016,04,06,00,14,9.60
2016,04,06,00,15,9.70
2016,04,06,00,16,9.70
2016,04,06,00,17,9.70
2016,04,06,00,18,9.70
2016,04,06,00,19,9.70
2016,04,06,00,20,9.60
2016,04,06,00,21,9.60
2016,04,06,00,22,9.70
2016,04,06,00,23,9.70
2016,04,06,00,24,9.70
2016,04,06,00,25,9.70
2016,04,06,00,26,9.70
2016,04,06,00,27,9.70
2016,04,06,00,28,9.80
2016,04,06,00,29,9.80
2016,04,06,00,30,9.80
2016,04,06,00,31,9.80
2016,04,06,00,32,9.90
2016,04,06,00,33,9.90
2016,04,06,00,34,9.90
2016,04,06,00,35,9.90
2016,04,06,00,36,9.90
2016,04,06,00,37,9.90
2016,04,06,00,38,10.00
2016,04,06,00,39,10.00
2016,04,06,00,40,10.00
2016,04,06,00,41,10.10
2016,04,06,00,42,10.10
2016,04,06,00,43,10.10
2016,04,06,00,44,10.20
2016,04,06,00,45,10.20
2016,04,06,00,46,10.20
2016,04,06,00,47,10.20
2016,04,06,00,48,10.20
2016,04,06,00,49,10.20
2016,04,06,00,50,10.20
2016,04,06,00,51,10.20
2016,04,06,00,52,10.20
2016,04,06,00,53,10.20
2016,04,06,00,54,10.20
2016,04,06,00,55,10.30
2016,04,06,00,56,10.30
2016,04,06,00,57,10.30
2016,04,06,00,58,10.30
2016,04,06,00,59,10.30
2016,04,06,01,00,10.30
2016,04,06,01,01,10.30
2016,04,06,01,02,10.30
2016,04,06,01,03,10.30
2016,04,06,01,04,10.30
2016,04,06,01,05,10.30
2016,04,06,01,06,10.30
2016,04,06,01,07,10.30
2016,04,06,01,08,10.30
2016,04,06,01,09,10.30
2016,04,06,01,10,10.20
2016,04,06,01,11,10.20
2016,04,06,01,12,10.20
2016,04,06,01,13,10.20
2016,04,06,01,14,10.20
2016,04,06,01,15,10.20
2016,04,06,01,16,10.20
2016,04,06,01,17,10.20
2016,04,06,01,18,10.10
2016,04,06,01,19,10.10
2016,04,06,01,20,10.10
2016,04,06,01,21,10.10
2016,04,06,01,22,10.10
2016,04,06,01,23,10.10
2016,04,06,01,24,10.00
2016,04,06,01,25,10.00
2016,04,06,01,26,10.00
2016,04,06,01,27,9.90
2016,04,06,01,28,9.90
2016,04,06,01,29,9.90
2016,04,06,01,30,9.90
2016,04,06,01,31,9.90
2016,04,06,01,32,9.80
2016,04,06,01,33,9.80
2016,04,06,01,34,9.80
2016,04,06,01,35,9.80
2016,04,06,01,36,9.80
2016,04,06,01,37,9.80
2016,04,06,01,38,9.80
2016,04,06,01,39,9.80
2016,04,06,01,40,9.80
2016,04,06,01,41,9.80
2016,04,06,01,42,9.70
2016,04,06,01,43,9.70
2016,04,06,01,44,9.70
2016,04,06,01,45,9.70
2016,04,06,01,46,9.70
2016,04,06,01,47,9.70
2016,04,06,01,48,9.70
2016,04,06,01,49,9.70
2016,04,06,01,50,9.70
2016,04,06,01,51,9.70
2016,04,06,01,52,9.70
2016,04,06,01,53,9.70
2016,04,06,01,54,9.70
2016,04,06,01,55,9.70
2016,04,06,01,56,9.70
2016,04,06,01,57,9.60
2016,04,06,01,58,9.60
2016,04,06,01,59,9.60
2016,04,06,02,00,9.60
2016,04,06,02,01,9.60
2016,04,06,02,02,9.60
2016,04,06,02,03,9.60
2016,04,06,02,04,9.60
2016,04,06,02,05,9.60
2016,04,06,02,06,9.60
2016,04,06,02,07,9.60
2016,04,06,02,08,9.60
2016,04,06,02,09,9.60
2016,04,06,02,10,9.50
2016,04,06,02,11,9.50
2016,04,06,02,12,9.50
2016,04,06,02,13,9.50
2016,04,06,02,14,9.50
2016,04,06,02,15,9.50
2016,04,06,02,16,9.40
2016,04,06,02,17,9.40
2016,04,06,02,18,9.40
2016,04,06,02,19,9.40
2016,04,06,02,20,9.40
2016,04,06,02,21,9.40
2016,04,06,02,22,9.40
2016,04,06,02,23,9.40
2016,04,06,02,24,9.40
2016,04,06,02,25,9.40
2016,04,06,02,26,9.40
2016,04,06,02,27,9.40
2016,04,06,02,28,9.40
2016,04,06,02,29,9.40
2016,04,06,02,30,9.40
2016,04,06,02,31,9.40
2016,04,06,02,32,9.40
2016,04,06,02,33,9.40
2016,04,06,02,34,9.50
2016,04,06,02,35,9.50
2016,04,06,02,36,9.60
2016,04,06,02,37,9.60
2016,04,06,02,38,9.60
2016,04,06,02,39,9.70
2016,04,06,02,40,9.80
2016,04,06,02,41,9.90
2016,04,06,02,42,9.90
2016,04,06,02,43,10.00
2016,04,06,02,44,10.00
2016,04,06,02,45,10.00
2016,04,06,02,46,10.10
2016,04,06,02,47,10.10
2016,04,06,02,48,10.10
2016,04,06,02,49,10.10
2016,04,06,02,50,10.10
2016,04,06,02,51,10.10
2016,04,06,02,52,10.00
2016,04,06,02,53,10.00
2016,04,06,02,54,10.00
2016,04,06,02,55,10.00
2016,04,06,02,56,10.00
2016,04,06,02,57,10.10
2016,04,06,02,58,10.10
2016,04,06,02,59,10.10
2016,04,06,03,00,10.10
2016,04,06,03,01,10.10
2016,04,06,03,02,10.10
2016,04,06,03,03,10.10
2016,04,06,03,04,10.10
2016,04,06,03,05,10.10
2016,04,06,03,06,10.10
2016,04,06,03,07,10.10
2016,04,06,03,08,10.10
2016,04,06,03,09,10.10
2016,04,06,03,10,10.10
2016,04,06,03,11,10.10
2016,04,06,03,12,10.10
2016,04,06,03,13,10.10
2016,04,06,03,14,10.10
2016,04,06,03,15,10.10
2016,04,06,03,16,10.10
2016,04,06,03,17,10.10
2016,04,06,03,18,10.10
2016,04,06,03,19,10.10
2016,04,06,03,20,10.10
2016,04,06,03,21,10.10
2016,04,06,03,22,10.10
2016,04,06,03,23,10.10
2016,04,06,03,24,10.00
2016,04,06,03,25,10.00
2016,04,06,03,26,10.00
2016,04,06,03,27,9.90
2016,04,06,03,28,9.90
2016,04,06,03,29,9.90
2016,04,06,03,30,9.90
2016,04,06,03,31,9.80
2016,04,06,03,32,9.80
2016,04,06,03,33,9.80
2016,04,06,03,34,9.80
2016,04,06,03,35,9.80
2016,04,06,03,36,9.80
2016,04,06,03,37,9.80
2016,04,06,03,38,9.80
2016,04,06,03,39,9.80
2016,04,06,03,40,9.80
2016,04,06,03,41,9.80
2016,04,06,03,42,9.80
2016,04,06,03,43,9.70
2016,04,06,03,44,9.70
2016,04,06,03,45,9.70
2016,04,06,03,46,9.70
2016,04,06,03,47,9.70
2016,04,06,03,48,9.70
2016,04,06,03,49,9.70
2016,04,06,03,50,9.60
2016,04,06,03,51,9.60
2016,04,06,03,52,9.60
2016,04,06,03,53,9.60
2016,04,06,03,54,9.50
2016,04,06,03,55,9.50
2016,04,06,03,56,9.50
2016,04,06,03,57,9.50
2016,04,06,03,58,9.50
2016,04,06,03,59,9.50
2016,04,06,04,00,9.50
2016,04,06,04,01,9.50
2016,04,06,04,02,9.50
2016,04,06,04,03,9.50
2016,04,06,04,04,9.50
2016,04,06,04,05,9.40
2016,04,06,04,06,9.40
2016,04,06,04,07,9.40
2016,04,06,04,08,9.40
2016,04,06,04,09,9.40
2016,04,06,04,10,9.40
2016,04,06,04,11,9.40
2016,04,06,04,12,9.40
2016,04,06,04,13,9.40
2016,04,06,04,14,9.40
2016,04,06,04,15,9.40
2016,04,06,04,16,9.30
2016,04,06,04,17,9.30
2016,04,06,04,18,9.30
2016,04,06,04,19,9.30
2016,04,06,04,20,9.30
2016,04,06,04,21,9.30
2016,04,06,04,22,9.30
2016,04,06,04,23,9.30
2016,04,06,04,24,9.30
2016,04,06,04,25,9.30
2016,04,06,04,26,9.30
2016,04,06,04,27,9.40
2016,04,06,04,28,9.40
2016,04,06,04,29,9.40
2016,04,06,04,30,9.40
2016,04,06,04,31,9.40
2016,04,06,04,32,9.40
2016,04,06,04,33,9.40
2016,04,06,04,34,9.40
2016,04,06,04,35,9.40
2016,04,06,04,36,9.40
2016,04,06,04,37,9.40
2016,04,06,04,38,9.40
2016,04,06,04,39,9.40
2016,04,06,04,40,9.40
2016,04,06,04,41,9.40
2016,04,06,04,42,9.40
2016,04,06,04,43,9.40
2016,04,06,04,44,9.40
2016,04,06,04,45,9.40
2016,04,06,04,46,9.40
2016,04,06,04,47,9.40
2016,04,06,04,48,9.40
2016,04,06,04,49,9.40
2016,04,06,04,50,9.40
2016,04,06,04,51,9.40
2016,04,06,04,52,9.40
2016,04,06,04,53,9.40
2016,04,06,04,54,9.40
2016,04,06,04,55,9.40
2016,04,06,04,56,9.40
2016,04,06,04,57,9.40
2016,04,06,04,58,9.40
2016,04,06,04,59,9.40
2016,04,06,05,00,9.40
2016,04,06,05,01,9.40
2016,04,06,05,02,9.40
2016,04,06,05,03,9.40
2016,04,06,05,04,9.40
2016,04,06,05,05,9.50
2016,04,06,05,06,9.40
2016,04,06,05,07,9.40
2016,04,06,05,08,9.40
2016,04,06,05,09,9.40
2016,04,06,05,10,9.40
2016,04,06,05,11,9.40
2016,04,06,05,12,9.40
2016,04,06,05,13,9.40
2016,04,06,05,14,9.40
2016,04,06,05,15,9.40
2016,04,06,05,16,9.40
2016,04,06,05,17,9.40
2016,04,06,05,18,9.40
2016,04,06,05,19,9.40
2016,04,06,05,20,9.50
2016,04,06,05,21,9.40
2016,04,06,05,22,9.40
2016,04,06,05,23,9.40
2016,04,06,05,24,9.40
2016,04,06,05,25,9.50
2016,04,06,05,26,9.50
2016,04,06,05,27,9.50
2016,04,06,05,28,9.50
2016,04,06,05,29,9.50
2016,04,06,05,30,9.50
2016,04,06,05,31,9.50
2016,04,06,05,32,9.50
2016,04,06,05,33,9.50
2016,04,06,05,34,9.60
2016,04,06,05,35,9.60
2016,04,06,05,36,9.60
2016,04,06,05,37,9.60
2016,04,06,05,38,9.60
2016,04,06,05,39,9.60
2016,04,06,05,40,9.60
2016,04,06,05,41,9.60
2016,04,06,05,42,9.60
2016,04,06,05,43,9.60
2016,04,06,05,44,9.60
2016,04,06,05,45,9.60
2016,04,06,05,46,9.60
2016,04,06,05,47,9.60
2016,04,06,05,48,9.60
2016,04,06,05,49,9.60
2016,04,06,05,50,9.60
2016,04,06,05,51,9.60
2016,04,06,05,52,9.60
2016,04,06,05,53,9.60
2016,04,06,05,54,9.60
2016,04,06,05,55,9.60
2016,04,06,05,56,9.60
2016,04,06,05,57,9.60
2016,04,06,05,58,9.60
2016,04,06,05,59,9.60
2016,04,06,06,00,9.60
2016,04,06,06,01,9.60
2016,04,06,06,02,9.60
2016,04,06,06,03,9.60
2016,04,06,06,04,9.60
2016,04,06,06,05,9.60
2016,04,06,06,06,9.60
2016,04,06,06,07,9.60
2016,04,06,06,08,9.60
2016,04,06,06,09,9.60
2016,04,06,06,10,9.60
2016,04,06,06,11,9.50
2016,04,06,06,12,9.50
2016,04,06,06,13,9.60
2016,04,06,06,14,9.60
2016,04,06,06,15,9.60
2016,04,06,06,16,9.60
2016,04,06,06,17,9.60
2016,04,06,06,18,9.60
2016,04,06,06,19,9.60
2016,04,06,06,20,9.50
2016,04,06,06,21,9.50
2016,04,06,06,22,9.50
2016,04,06,06,23,9.50
2016,04,06,06,24,9.50
2016,04,06,06,25,9.50
2016,04,06,06,26,9.50
2016,04,06,06,27,9.50
2016,04,06,06,28,9.50
2016,04,06,06,29,9.50
2016,04,06,06,30,9.50
2016,04,06,06,31,9.50
2016,04,06,06,32,9.50
2016,04,06,06,33,9.50
2016,04,06,06,34,9.50
2016,04,06,06,35,9.50
2016,04,06,06,36,9.50
2016,04,06,06,37,9.50
2016,04,06,06,38,9.50
2016,04,06,06,39,9.50
2016,04,06,06,40,9.50
2016,04,06,06,41,9.50
2016,04,06,06,42,9.50
2016,04,06,06,43,9.50
2016,04,06,06,44,9.50
2016,04,06,06,45,9.50
2016,04,06,06,46,9.50
2016,04,06,06,47,9.40
2016,04,06,06,48,9.40
2016,04,06,06,49,9.40
2016,04,06,06,50,9.40
2016,04,06,06,51,9.40
2016,04,06,06,52,9.40
2016,04,06,06,53,9.40
2016,04,06,06,54,9.40
2016,04,06,06,55,9.40
2016,04,06,06,56,9.40
2016,04,06,06,57,9.40
2016,04,06,06,58,9.40
2016,04,06,06,59,9.40
2016,04,06,07,00,9.40
2016,04,06,07,01,9.40
2016,04,06,07,02,9.40
2016,04,06,07,03,9.40
2016,04,06,07,04,9.40
2016,04,06,07,05,9.40
2016,04,06,07,06,9.40
2016,04,06,07,07,9.40
2016,04,06,07,08,9.40
2016,04,06,07,09,9.40
2016,04,06,07,10,9.30
2016,04,06,07,11,9.30
2016,04,06,07,12,9.30
2016,04,06,07,13,9.40
2016,04,06,07,14,9.30
2016,04,06,07,15,9.30
2016,04,06,07,16,9.30
2016,04,06,07,17,9.30
2016,04,06,07,18,9.30
2016,04,06,07,19,9.30
2016,04,06,07,20,9.30
2016,04,06,07,21,9.30
2016,04,06,07,22,9.30
2016,04,06,07,23,9.30
2016,04,06,07,24,9.30
2016,04,06,07,25,9.30
2016,04,06,07,26,9.30
2016,04,06,07,27,9.30
2016,04,06,07,28,9.30
2016,04,06,07,29,9.30
2016,04,06,07,30,9.30
2016,04,06,07,31,9.30
2016,04,06,07,32,9.30
2016,04,06,07,33,9.30
2016,04,06,07,34,9.30
2016,04,06,07,35,9.30
2016,04,06,07,36,9.30
2016,04,06,07,37,9.30
2016,04,06,07,38,9.30
2016,04,06,07,39,9.30
2016,04,06,07,40,9.30
2016,04,06,07,41,9.30
2016,04,06,07,42,9.30
2016,04,06,07,43,9.30
2016,04,06,07,44,9.30
2016,04,06,07,45,9.30
2016,04,06,07,46,9.30
2016,04,06,07,47,9.40
2016,04,06,07,48,9.40
2016,04,06,07,49,9.40
2016,04,06,07,50,9.40
2016,04,06,07,51,9.40
2016,04,06,07,52,9.40
2016,04,06,07,53,9.40
2016,04,06,07,54,9.40
2016,04,06,07,55,9.40
2016,04,06,07,56,9.40
2016,04,06,07,57,9.40
2016,04,06,07,58,9.40
2016,04,06,07,59,9.40
2016,04,06,08,00,9.40
2016,04,06,08,01,9.40
2016,04,06,08,02,9.50
2016,04,06,08,03,9.50
2016,04,06,08,04,9.50
2016,04,06,08,05,9.50
2016,04,06,08,06,9.50
2016,04,06,08,07,9.60
2016,04,06,08,08,9.60
2016,04,06,08,09,9.60
2016,04,06,08,10,9.60
2016,04,06,08,11,9.60
2016,04,06,08,12,9.60
2016,04,06,08,13,9.60
2016,04,06,08,14,9.60
2016,04,06,08,15,9.70
2016,04,06,08,16,9.70
2016,04,06,08,17,9.70
2016,04,06,08,18,9.70
2016,04,06,08,19,9.70
2016,04,06,08,20,9.70
2016,04,06,08,21,9.80
2016,04,06,08,22,9.80
2016,04,06,08,23,9.80
2016,04,06,08,24,9.80
2016,04,06,08,25,9.80
2016,04,06,08,26,9.80
2016,04,06,08,27,9.80
2016,04,06,08,28,9.90
2016,04,06,08,29,9.90
2016,04,06,08,30,9.90
2016,04,06,08,31,9.90
2016,04,06,08,32,9.90
2016,04,06,08,33,9.90
2016,04,06,08,34,10.00
2016,04,06,08,35,10.00
2016,04,06,08,36,10.00
2016,04,06,08,37,10.00
2016,04,06,08,38,10.00
2016,04,06,08,39,10.10
2016,04,06,08,40,10.10
2016,04,06,08,41,10.10
2016,04,06,08,42,10.10
2016,04,06,08,43,10.10
2016,04,06,08,44,10.10
2016,04,06,08,45,10.10
2016,04,06,08,46,10.10
2016,04,06,08,47,10.10
2016,04,06,08,48,10.20
2016,04,06,08,49,10.20
2016,04,06,08,50,10.20
2016,04,06,08,51,10.20
2016,04,06,08,52,10.30
2016,04,06,08,53,10.30
2016,04,06,08,54,10.30
2016,04,06,08,55,10.30
2016,04,06,08,56,10.30
2016,04,06,08,57,10.30
2016,04,06,08,58,10.40
2016,04,06,08,59,10.40
2016,04,06,09,00,10.50
2016,04,06,09,01,10.50
2016,04,06,09,02,10.60
2016,04,06,09,03,10.60
2016,04,06,09,04,10.70
2016,04,06,09,05,10.70
2016,04,06,09,06,10.70
2016,04,06,09,07,10.80
2016,04,06,09,08,10.80
2016,04,06,09,09,10.80
2016,04,06,09,10,10.90
2016,04,06,09,11,10.90
2016,04,06,09,12,10.90
2016,04,06,09,13,10.90
2016,04,06,09,14,10.90
2016,04,06,09,15,10.90
2016,04,06,09,16,10.90
2016,04,06,09,17,10.90
2016,04,06,09,18,10.90
2016,04,06,09,19,10.90
2016,04,06,09,20,10.80
2016,04,06,09,21,10.90
2016,04,06,09,22,10.80
2016,04,06,09,23,10.80
2016,04,06,09,24,10.90
2016,04,06,09,25,10.90
2016,04,06,09,26,11.00
2016,04,06,09,27,11.00
2016,04,06,09,28,11.10
2016,04,06,09,29,11.10
2016,04,06,09,30,11.10
2016,04,06,09,31,11.10
2016,04,06,09,32,11.10
2016,04,06,09,33,11.10
2016,04,06,09,34,11.10
2016,04,06,09,35,11.10
2016,04,06,09,36,11.20
2016,04,06,09,37,11.20
2016,04,06,09,38,11.20
2016,04,06,09,39,11.30
2016,04,06,09,40,11.30
2016,04,06,09,41,11.40
2016,04,06,09,42,11.40
2016,04,06,09,43,11.50
2016,04,06,09,44,11.50
2016,04,06,09,45,11.50
2016,04,06,09,46,11.50
2016,04,06,09,47,11.50
2016,04,06,09,48,11.40
2016,04,06,09,49,11.40
2016,04,06,09,50,11.50
2016,04,06,09,51,11.50
2016,04,06,09,52,11.50
2016,04,06,09,53,11.60
2016,04,06,09,54,11.60
2016,04,06,09,55,11.60
2016,04,06,09,56,11.70
2016,04,06,09,57,11.80
2016,04,06,09,58,11.80
2016,04,06,09,59,11.80
2016,04,06,10,00,11.80
2016,04,06,10,01,11.80
2016,04,06,10,02,11.80
2016,04,06,10,03,11.80
2016,04,06,10,04,11.80
2016,04,06,10,05,11.70
2016,04,06,10,06,11.70
2016,04,06,10,07,11.80
2016,04,06,10,08,11.70
2016,04,06,10,09,11.70
2016,04,06,10,10,11.80
2016,04,06,10,11,11.80
2016,04,06,10,12,11.90
2016,04,06,10,13,11.90
2016,04,06,10,14,11.90
2016,04,06,10,15,11.90
2016,04,06,10,16,11.90
2016,04,06,10,17,12.00
2016,04,06,10,18,12.00
2016,04,06,10,19,12.10
2016,04,06,10,20,12.10
2016,04,06,10,21,12.10
2016,04,06,10,22,12.10
2016,04,06,10,23,12.10
2016,04,06,10,24,12.10
2016,04,06,10,25,12.10
2016,04,06,10,26,12.10
2016,04,06,10,27,12.10
2016,04,06,10,28,12.00
2016,04,06,10,29,12.00
2016,04,06,10,30,12.00
2016,04,06,10,31,11.90
2016,04,06,10,32,11.90
2016,04,06,10,33,11.90
2016,04,06,10,34,11.90
2016,04,06,10,35,11.90
2016,04,06,10,36,11.90
2016,04,06,10,37,11.90
2016,04,06,10,38,12.00
2016,04,06,10,39,12.10
2016,04,06,10,40,12.10
2016,04,06,10,41,12.20
2016,04,06,10,42,12.20
2016,04,06,10,43,12.10
2016,04,06,10,44,12.10
2016,04,06,10,45,12.10
2016,04,06,10,46,12.10
2016,04,06,10,47,12.10
2016,04,06,10,48,12.20
2016,04,06,10,49,12.20
2016,04,06,10,50,12.30
2016,04,06,10,51,12.30
2016,04,06,10,52,12.30
2016,04,06,10,53,12.30
2016,04,06,10,54,12.30
2016,04,06,10,55,12.30
2016,04,06,10,56,12.30
2016,04,06,10,57,12.30
2016,04,06,10,58,12.30
2016,04,06,10,59,12.30
2016,04,06,11,00,12.40
2016,04,06,11,01,12.50
2016,04,06,11,02,12.60
2016,04,06,11,03,12.60
2016,04,06,11,04,12.70
2016,04,06,11,05,12.70
2016,04,06,11,06,12.70
2016,04,06,11,07,12.80
2016,04,06,11,08,12.80
2016,04,06,11,09,12.90
2016,04,06,11,10,12.90
2016,04,06,11,11,13.00
2016,04,06,11,12,13.00
2016,04,06,11,13,13.10
2016,04,06,11,14,13.20
2016,04,06,11,15,13.20
2016,04,06,11,16,13.30
2016,04,06,11,17,13.40
2016,04,06,11,18,13.60
2016,04,06,11,19,13.60
2016,04,06,11,20,13.60
2016,04,06,11,21,13.60
2016,04,06,11,22,13.50
2016,04,06,11,23,13.40
2016,04,06,11,24,13.40
2016,04,06,11,25,13.40
2016,04,06,11,26,13.40
2016,04,06,11,27,13.50
2016,04,06,11,28,13.60
2016,04,06,11,29,13.70
2016,04,06,11,30,13.80
2016,04,06,11,31,13.80
2016,04,06,11,32,13.90
2016,04,06,11,33,14.00
2016,04,06,11,34,14.00
2016,04,06,11,35,14.10
2016,04,06,11,36,14.20
2016,04,06,11,37,14.20
2016,04,06,11,38,14.20
2016,04,06,11,39,14.20
2016,04,06,11,40,14.10
2016,04,06,11,41,14.10
2016,04,06,11,42,14.20
2016,04,06,11,43,14.20
2016,04,06,11,44,14.20
2016,04,06,11,45,14.20
2016,04,06,11,46,14.30
2016,04,06,11,47,14.30
2016,04,06,11,48,14.40
2016,04,06,11,49,14.50
2016,04,06,11,50,14.60
2016,04,06,11,51,14.80
2016,04,06,11,52,14.90
2016,04,06,11,53,15.00
2016,04,06,11,54,15.10
2016,04,06,11,55,15.10
2016,04,06,11,56,15.20
2016,04,06,11,57,15.20
2016,04,06,11,58,15.20
2016,04,06,11,59,15.20
2016,04,06,12,00,15.30
2016,04,06,12,01,15.30
2016,04,06,12,02,15.40
2016,04,06,12,03,15.40
2016,04,06,12,04,15.40
2016,04,06,12,05,15.40
2016,04,06,12,06,15.30
2016,04,06,12,07,15.30
2016,04,06,12,08,15.30
2016,04,06,12,09,15.30
2016,04,06,12,10,15.30
2016,04,06,12,11,15.20
2016,04,06,12,12,15.10
2016,04,06,12,13,15.00
2016,04,06,12,14,14.80
2016,04,06,12,15,14.80
2016,04,06,12,16,14.70
2016,04,06,12,17,14.70
2016,04,06,12,18,14.80
2016,04,06,12,19,14.80
2016,04,06,12,20,14.80
2016,04,06,12,21,14.80
2016,04,06,12,22,14.90
2016,04,06,12,23,14.90
2016,04,06,12,24,14.90
2016,04,06,12,25,14.90
2016,04,06,12,26,15.00
2016,04,06,12,27,15.10
2016,04,06,12,28,15.20
2016,04,06,12,29,15.30
2016,04,06,12,30,15.30
2016,04,06,12,31,15.40
2016,04,06,12,32,15.50
2016,04,06,12,33,15.50
2016,04,06,12,34,15.60
2016,04,06,12,35,15.50
2016,04,06,12,36,15.40
2016,04,06,12,37,15.40
2016,04,06,12,38,15.40
2016,04,06,12,39,15.30
2016,04,06,12,40,15.20
2016,04,06,12,41,15.20
2016,04,06,12,42,15.10
2016,04,06,12,43,15.10
2016,04,06,12,44,15.20
2016,04,06,12,45,15.20
2016,04,06,12,46,15.00
2016,04,06,12,47,15.00
2016,04,06,12,48,14.90
2016,04,06,12,49,15.00
2016,04,06,12,50,15.00
2016,04,06,12,51,15.00
2016,04,06,12,52,15.00
2016,04,06,12,53,15.00
2016,04,06,12,54,15.00
2016,04,06,12,55,15.00
2016,04,06,12,56,15.00
2016,04,06,12,57,14.90
2016,04,06,12,58,14.90
2016,04,06,12,59,14.80
2016,04,06,13,00,14.80
2016,04,06,13,01,14.80
2016,04,06,13,02,14.80
2016,04,06,13,03,14.80
2016,04,06,13,04,14.80
2016,04,06,13,05,14.80
2016,04,06,13,06,14.90
2016,04,06,13,07,15.00
2016,04,06,13,08,15.00
2016,04,06,13,09,15.10
2016,04,06,13,10,15.10
2016,04,06,13,11,15.20
2016,04,06,13,12,15.30
2016,04,06,13,13,15.30
2016,04,06,13,14,15.30
2016,04,06,13,15,15.30
2016,04,06,13,16,15.40
2016,04,06,13,17,15.40
2016,04,06,13,18,15.40
2016,04,06,13,19,15.40
2016,04,06,13,20,15.30
2016,04,06,13,21,15.30
2016,04,06,13,22,15.30
2016,04,06,13,23,15.40
2016,04,06,13,24,15.30
2016,04,06,13,25,15.30
2016,04,06,13,26,15.20
2016,04,06,13,27,15.10
2016,04,06,13,28,15.00
2016,04,06,13,29,15.00
2016,04,06,13,30,15.00
2016,04,06,13,31,15.10
2016,04,06,13,32,15.10
2016,04,06,13,33,15.20
2016,04,06,13,34,15.20
2016,04,06,13,35,15.20
2016,04,06,13,36,15.20
2016,04,06,13,37,15.20
2016,04,06,13,38,15.20
2016,04,06,13,39,15.20
2016,04,06,13,40,15.20
2016,04,06,13,41,15.20
2016,04,06,13,42,15.20
2016,04,06,13,43,15.30
2016,04,06,13,44,15.30
2016,04,06,13,45,15.40
2016,04,06,13,46,15.40
2016,04,06,13,47,15.40
2016,04,06,13,48,15.40
2016,04,06,13,49,15.40
2016,04,06,13,50,15.40
2016,04,06,13,51,15.40
2016,04,06,13,52,15.50
2016,04,06,13,53,15.50
2016,04,06,13,54,15.60
2016,04,06,13,55,15.60
2016,04,06,13,56,15.70
2016,04,06,13,57,15.80
2016,04,06,13,58,15.90
2016,04,06,13,59,16.10
2016,04,06,14,00,16.20
2016,04,06,14,01,16.30
2016,04,06,14,02,16.30
2016,04,06,14,03,16.40
2016,04,06,14,04,16.50
2016,04,06,14,05,16.60
2016,04,06,14,06,16.60
2016,04,06,14,07,16.60
2016,04,06,14,08,16.70
2016,04,06,14,09,16.70
2016,04,06,14,10,16.70
2016,04,06,14,11,16.70
2016,04,06,14,12,16.80
2016,04,06,14,13,16.90
2016,04,06,14,14,17.00
2016,04,06,14,15,17.00
2016,04,06,14,16,17.10
2016,04,06,14,17,17.00
2016,04,06,14,18,16.90
2016,04,06,14,19,16.50
2016,04,06,14,20,16.20
2016,04,06,14,21,16.00
2016,04,06,14,22,15.80
2016,04,06,14,23,15.60
2016,04,06,14,24,15.40
2016,04,06,14,25,15.20
2016,04,06,14,26,15.10
2016,04,06,14,27,14.90
2016,04,06,14,28,14.80
2016,04,06,14,29,14.80
2016,04,06,14,30,14.80
2016,04,06,14,31,14.80
2016,04,06,14,32,14.70
2016,04,06,14,33,14.60
2016,04,06,14,34,14.60
2016,04,06,14,35,14.60
2016,04,06,14,36,14.60
2016,04,06,14,37,14.60
2016,04,06,14,38,14.70
2016,04,06,14,39,14.70
2016,04,06,14,40,14.80
2016,04,06,14,41,14.80
2016,04,06,14,42,14.90
2016,04,06,14,43,15.10
2016,04,06,14,44,15.20
2016,04,06,14,45,15.30
2016,04,06,14,46,15.40
2016,04,06,14,47,15.50
2016,04,06,14,48,15.60
2016,04,06,14,49,15.70
2016,04,06,14,50,15.90
2016,04,06,14,51,16.00
2016,04,06,14,52,16.10
2016,04,06,14,53,16.20
2016,04,06,14,54,16.30
2016,04,06,14,55,16.40
2016,04,06,14,56,16.40
2016,04,06,14,57,16.50
2016,04,06,14,58,16.50
2016,04,06,14,59,16.60
2016,04,06,15,00,16.70
2016,04,06,15,01,16.80
2016,04,06,15,02,16.90
2016,04,06,15,03,16.90
2016,04,06,15,04,16.90
2016,04,06,15,05,16.90
2016,04,06,15,06,16.90
2016,04,06,15,07,16.90
2016,04,06,15,08,17.00
2016,04,06,15,09,17.00
2016,04,06,15,10,17.00
2016,04,06,15,11,17.00
2016,04,06,15,12,17.00
2016,04,06,15,13,16.90
2016,04,06,15,14,16.90
2016,04,06,15,15,16.90
2016,04,06,15,16,16.90
2016,04,06,15,17,16.80
2016,04,06,15,18,16.80
2016,04,06,15,19,16.70
2016,04,06,15,20,16.70
2016,04,06,15,21,16.60
2016,04,06,15,22,16.50
2016,04,06,15,23,16.50
2016,04,06,15,24,16.40
2016,04,06,15,25,16.40
2016,04,06,15,26,16.40
2016,04,06,15,27,16.40
2016,04,06,15,28,16.40
2016,04,06,15,29,16.40
2016,04,06,15,30,16.50
2016,04,06,15,31,16.50
2016,04,06,15,32,16.60
2016,04,06,15,33,16.60
2016,04,06,15,34,16.50
2016,04,06,15,35,16.50
2016,04,06,15,36,16.40
2016,04,06,15,37,16.40
2016,04,06,15,38,16.50
2016,04,06,15,39,16.50
2016,04,06,15,40,16.40
2016,04,06,15,41,16.40
2016,04,06,15,42,16.40
2016,04,06,15,43,16.40
2016,04,06,15,44,16.30
2016,04,06,15,45,16.30
2016,04,06,15,46,16.20
2016,04,06,15,47,16.10
2016,04,06,15,48,16.10
2016,04,06,15,49,16.10
2016,04,06,15,50,16.10
2016,04,06,15,51,16.00
2016,04,06,15,52,16.10
2016,04,06,15,53,16.20
2016,04,06,15,54,16.20
2016,04,06,15,55,16.20
2016,04,06,15,56,16.20
2016,04,06,15,57,16.10
2016,04,06,15,58,16.00
2016,04,06,15,59,16.00
2016,04,06,16,00,15.90
2016,04,06,16,01,15.90
2016,04,06,16,02,16.00
2016,04,06,16,03,16.00
2016,04,06,16,04,16.00
2016,04,06,16,05,16.00
2016,04,06,16,06,15.90
2016,04,06,16,07,15.90
2016,04,06,16,08,15.90
2016,04,06,16,09,15.90
2016,04,06,16,10,15.90
2016,04,06,16,11,15.90
2016,04,06,16,12,15.90
2016,04,06,16,13,15.90
2016,04,06,16,14,15.90
2016,04,06,16,15,15.90
2016,04,06,16,16,15.90
2016,04,06,16,17,16.00
2016,04,06,16,18,16.00
2016,04,06,16,19,16.10
2016,04,06,16,20,16.10
2016,04,06,16,21,16.20
2016,04,06,16,22,16.20
2016,04,06,16,23,16.30
2016,04,06,16,24,16.40
2016,04,06,16,25,16.40
2016,04,06,16,26,16.40
2016,04,06,16,27,16.50
2016,04,06,16,28,16.60
2016,04,06,16,29,16.60
2016,04,06,16,30,16.50
2016,04,06,16,31,16.40
2016,04,06,16,32,16.40
2016,04,06,16,33,16.40
2016,04,06,16,34,16.40
2016,04,06,16,35,16.30
2016,04,06,16,36,16.30
2016,04,06,16,37,16.40
2016,04,06,16,38,16.40
2016,04,06,16,39,16.40
2016,04,06,16,40,16.40
2016,04,06,16,41,16.30
2016,04,06,16,42,16.30
2016,04,06,16,43,16.20
2016,04,06,16,44,16.20
2016,04,06,16,45,16.20
2016,04,06,16,46,16.20
2016,04,06,16,47,16.20
2016,04,06,16,48,16.20
2016,04,06,16,49,16.20
2016,04,06,16,50,16.20
2016,04,06,16,51,16.20
2016,04,06,16,52,16.20
2016,04,06,16,53,16.20
2016,04,06,16,54,16.20
2016,04,06,16,55,16.20
2016,04,06,16,56,16.10
2016,04,06,16,57,16.00
2016,04,06,16,58,16.00
2016,04,06,16,59,15.90
2016,04,06,17,00,15.90
2016,04,06,17,01,15.80
2016,04,06,17,02,15.80
2016,04,06,17,03,15.70
2016,04,06,17,04,15.60
2016,04,06,17,05,15.60
2016,04,06,17,06,15.60
2016,04,06,17,07,15.60
2016,04,06,17,08,15.60
2016,04,06,17,09,15.60
2016,04,06,17,10,15.60
2016,04,06,17,11,15.60
2016,04,06,17,12,15.50
2016,04,06,17,13,15.50
2016,04,06,17,14,15.50
2016,04,06,17,15,15.50
2016,04,06,17,16,15.50
2016,04,06,17,17,15.50
2016,04,06,17,18,15.50
2016,04,06,17,19,15.50
2016,04,06,17,20,15.40
2016,04,06,17,21,15.40
2016,04,06,17,22,15.40
2016,04,06,17,23,15.40
2016,04,06,17,24,15.30
2016,04,06,17,25,15.30
2016,04,06,17,26,15.20
2016,04,06,17,27,15.20
2016,04,06,17,28,15.10
2016,04,06,17,29,15.10
2016,04,06,17,30,15.20
2016,04,06,17,31,15.20
2016,04,06,17,32,15.10
2016,04,06,17,33,15.10
2016,04,06,17,34,15.10
2016,04,06,17,35,15.10
2016,04,06,17,36,15.10
2016,04,06,17,37,15.10